Content
SEND FEEDBACK

Daily
Averages
Monthly
Summary
Canada

SUDBURY, ONTARIO


Home > North America > Canada > Ontario
Elevation: 1140 feet     Latitude: 46 37N     Longitude: 080 48W

WEATHER
 
SELECT A DAY
Number of Records: 183,855;   Date Range: 1/1/95 - 8/10/14
 
SHARE

PRINT THIS DATA

[ ← Previous Day ]
WEATHER ALMANAC - APRIL 23, 2013
[ Next Day → ]
[ °C ]   °F
Weather ElementAverageHighLow
Temperature46.8 °F59 °F (2:00 pm)35.6 °F (4:00 am)
Dewpoint29.6 °F39.2 °F (11:00 pm)23 °F (1:00 am)
Humidity50.7 %87 % (11:00 pm)23 % (2:00 pm)
Barometer30.05 in30.29 in (1:00 am)29.83 in (11:00 pm)
Wind Speed16.6 mph31.1 mph (2:00 pm)
Wind Gust42.6 mph (2:00 pm)
Weather ElementAverage
Visibility17.9 mi
Wind DirectionSSE (172.9 °)

Weather ElementTotal
Precipitation---
Heating Degree Days17.7 (Base 65)
Averaged from 28 records on April 23, 2013
WEATHER CONDITIONS BREAKOUT
WIND DIRECTION BREAKOUT
WEATHER BY HOUR - APRIL 23, 2013
[ °C ]   °F
Local TimeTemperatureDewpointHumidityBarometerVisibilityWind DirectionWind SpeedGust SpeedPrecipitationEventsConditions
1:00 AM39.2 °F23.0 °F52 %30.29 in15.0 miSSE (150°)10.4 mphPartly Cloudy
2:00 AM39.0 °F24.0 °F42 %30.27 in15.0 miSE (140°)10.4 mphClear
2:00 AM39.2 °F24.8 °F56 %30.27 in15.0 miSE (140°)10.4 mphPartly Cloudy
3:00 AM37.4 °F23.0 °F56 %30.24 in15.0 miSE (140°)12.7 mphClear
4:00 AM35.6 °F23.0 °F60 %30.22 in15.0 miSE (130°)11.5 mphClear
5:00 AM35.6 °F23.0 °F60 %30.20 in15.0 miSE (140°)11.5 mphClear
6:00 AM35.6 °F23.0 °F60 %30.17 in15.0 miSE (140°)13.8 mphClear
7:00 AM35.6 °F23.0 °F60 %30.16 in20.0 miSE (140°)12.7 mphScattered Clouds
8:00 AM37.0 °F25.0 °F49 %30.15 in19.0 miSSE (150°)13.8 mphPartly Cloudy
8:00 AM37.4 °F24.8 °F60 %30.15 in20.0 miSSE (150°)13.8 mphScattered Clouds
9:00 AM42.8 °F28.4 °F57 %30.14 in20.0 miSSE (160°)15.0 mphMostly Cloudy
10:00 AM48.2 °F28.4 °F46 %30.12 in20.0 miSouth (170°)19.6 mphMostly Cloudy
11:00 AM51.8 °F30.2 °F44 %30.09 in20.0 miSouth (180°)19.6 mph31.1 mphOvercast
12:00 PM53.6 °F30.2 °F41 %30.09 in20.0 miSouth (190°)25.3 mphOvercast
1:00 PM57.2 °F32.0 °F38 %30.02 in20.0 miSouth (180°)26.5 mph38.0 mphOvercast
2:00 PM59.0 °F31.0 °F23 %29.98 in19.0 miSouth (180°)31.1 mphOvercast
2:00 PM59.0 °F32.0 °F36 %29.98 in20.0 miSouth (180°)31.1 mph42.6 mphOvercast
3:00 PM59.0 °F32.0 °F36 %29.96 in20.0 miSouth (190°)29.9 mph39.1 mphOvercast
4:00 PM55.4 °F32.0 °F41 %29.94 in20.0 miSSW (200°)21.9 mph29.9 mphOvercast
4:37 PM53.6 °F33.8 °F47 %29.93 in20.0 miSSW (210°)19.6 mph25.3 mphRainLight Rain
5:00 PM53.6 °F33.8 °F47 %29.93 in15.0 miSSW (210°)17.3 mphRainLight Rain
6:00 PM51.8 °F33.8 °F50 %29.89 in20.0 miSouth (180°)13.8 mphRainLight Rain
6:46 PM51.8 °F33.8 °F50 %29.87 in20.0 miSouth (180°)12.7 mph18.4 mphOvercast
7:00 PM53.6 °F33.8 °F47 %29.87 in20.0 miSouth (190°)17.3 mph25.3 mphRainLight Rain
8:00 PM50.0 °F36.0 °F46 %29.87 in19.0 miSouth (190°)11.5 mphRainLight Rain
8:00 PM50.0 °F35.6 °F58 %29.87 in20.0 miSouth (190°)10.4 mphRainLight Rain
9:00 PM46.4 °F37.4 °F71 %29.86 in15.0 miSSW (200°)11.5 mphRainLight Rain
11:00 PM42.8 °F39.2 °F87 %29.83 in10.0 miWSW (240°)10.4 mphRainLight Rain
Hourly data recorded from CYSB, located miles away from Sudbury, Ontario







STORIES FROM OUR PARTNERS